User: anonymous   Login
Location: Bothwell
(42.3833°S, 147.0000°E)
Time: 06:33:04
(UTC+10:00)
Language:

CUBEBUG 2 - Orbit

View from above orbital plane
View from above orbital plane
View from above satellite
View from above satellite

Ground track
Ground track

The orbit data is extracted from the following two-line orbital elements,

1 39440U 13066AA  22267.42317676  .00001313  00000-0  18298-3 0  9990
2 39440  97.7355 220.8805 0078515 169.2551 191.0360 14.77271032474894
Epoch (UTC): 24 September 2022 10:09:22
Eccentricity: 0.0078515
inclination: 97.7355°
perigee height: 583 km
apogee height: 693 km
right ascension of ascending node: 220.8805°
argument of perigee: 169.2551°
revolutions per day: 14.77271032
mean anomaly at epoch: 191.0360°
orbit number at epoch: 47489

The dashed part of the orbit path shows where the satellite is in the earth's shadow,  

DLR